EW5549 Weather Reports


Display with metric or nautical units.
time (UTC)temp
F
wind
direction
speed
MPH
gust
MPH
rain 1hr
in
rain 24hr
in
rain mn
in
humidity
%
barometer
mb
20260510014943 67 316 5.0 6.0 0.00 0.00 0.00 35 1018.5
20260510014442 67 286 5.0 6.0 0.00 0.00 0.00 34 1018.5
20260510013938 68 297 7.0 8.0 0.00 0.00 0.00 33 1018.6
20260510013432 67 280 4.0 5.0 0.00 0.00 0.00 35 1018.5
20260510012929 67 237 5.0 6.0 0.00 0.00 0.00 34 1018.5
20260510012424 68 264 6.0 7.0 0.00 0.00 0.00 33 1018.6
20260510011919 67 264 6.0 7.0 0.00 0.00 0.00 34 1018.5
20260510011414 68 263 5.0 6.0 0.00 0.00 0.00 33 1018.5
20260510010910 67 272 3.0 3.0 0.00 0.00 0.00 33 1018.6
20260510010408 67 255 4.0 5.0 0.00 0.00 0.00 33 1018.6
20260510005904 68 252 6.0 7.0 0.00 0.00 0.00 33 1018.5
20260510005400 69 236 6.0 7.0 0.00 0.00 0.00 32 1018.6
20260510004858 69 291 6.0 7.0 0.00 0.00 0.00 31 1018.5
20260510004355 69 242 9.0 9.0 0.00 0.00 0.00 30 1018.5
20260510003853 70 282 9.0 10.0 0.00 0.00 0.00 30 1018.7
20260510003350 70 276 8.0 9.0 0.00 0.00 0.00 29 1018.6
20260510002848 70 301 7.0 7.0 0.00 0.00 0.00 30 1018.5
20260510002346 69 305 6.0 7.0 0.00 0.00 0.00 30 1018.6
20260510001842 69 284 5.0 7.0 0.00 0.00 0.00 30 1018.6
20260510001341 70 265 10.0 10.0 0.00 0.00 0.00 28 1018.6
20260510000836 70 283 9.0 9.0 0.00 0.00 0.00 28 1018.7
20260510000334 68 326 5.0 6.0 0.00 0.00 0.00 31 1018.5
20260509235830 68 319 6.0 7.0 0.00 0.00 0.00 32 1018.3
20260509235327 68 293 5.0 6.0 0.00 0.00 0.00 31 1018.4
20260509234823 67 294 8.0 9.0 0.00 0.00 0.00 32 1018.4
20260509234320 68 257 9.0 10.0 0.00 0.00 0.00 31 1018.3
20260509233818 70 253 5.0 6.0 0.00 0.00 0.00 29 1018.5
20260509233315 69 236 8.0 9.0 0.00 0.00 0.00 30 1018.5
20260509232811 69 262 8.0 9.0 0.00 0.00 0.00 29 1018.5
20260509232309 69 255 9.0 10.0 0.00 0.00 0.00 29 1018.5
20260509231805 70 288 11.0 13.0 0.00 0.00 0.00 30 1018.2
20260509231302 70 230 4.0 6.0 0.00 0.00 0.00 29 1018.5
20260509230800 70 298 3.0 3.0 0.00 0.00 0.00 30 1018.2
20260509230256 68 217 3.0 5.0 0.00 0.00 0.00 32 1018.5
20260509225751 68 268 2.0 2.0 0.00 0.00 0.00 30 1018.5
20260509225248 68 194 2.0 2.0 0.00 0.00 0.00 31 1018.7
20260509224744 68 242 7.0 8.0 0.00 0.00 0.00 30 1018.6
20260509224241 69 317 3.0 3.0 0.00 0.00 0.00 30 1018.7
20260509223738 69 232 10.0 11.0 0.00 0.00 0.00 30 1018.7
20260509223235 69 297 4.0 5.0 0.00 0.00 0.00 29 1018.8
20260509222732 69 356 5.0 7.0 0.00 0.00 0.00 30 1018.7
20260509222227 69 51 2.0 2.0 0.00 0.00 0.00 32 1018.6
20260509221723 68 357 2.0 2.0 0.00 0.00 0.00 30 1018.8
20260509221219 68 62 1.0 1.0 0.00 0.00 0.00 32 1018.8
20260509220715 67 327 2.0 3.0 0.00 0.00 0.00 31 1018.8
20260509220212 68 26 2.0 2.0 0.00 0.00 0.00 30 1018.8
20260509215707 68 350 3.0 5.0 0.00 0.00 0.00 31 1018.8
20260509215204 69 28 3.0 3.0 0.00 0.00 0.00 31 1018.8
20260509214701 67 123 1.0 2.0 0.00 0.00 0.00 30 1019.1
20260509214158 68 172 3.0 3.0 0.00 0.00 0.00 30 1018.8
20260509213655 66 82 2.0 2.0 0.00 0.00 0.00 33 1018.9
20260509213151 66 68 4.0 6.0 0.00 0.00 0.00 32 1018.9
20260509212648 66 83 7.0 8.0 0.00 0.00 0.00 34 1019.2
20260509212145 66 4 5.0 6.0 0.00 0.00 0.00 31 1019.1
20260509211641 66 90 9.0 10.0 0.00 0.00 0.00 31 1018.8
20260509211138 66 94 4.0 5.0 0.00 0.00 0.00 34 1019.1
20260509210635 66 146 4.0 6.0 0.00 0.00 0.00 33 1019.2
20260509210132 65 166 3.0 5.0 0.00 0.00 0.00 32 1019.3
20260509205627 66 96 7.0 8.0 0.00 0.00 0.00 34 1019.2
20260509205121 65 67 2.0 2.0 0.00 0.00 0.00 33 1019.4
20260509204617 65 140 7.0 8.0 0.00 0.00 0.00 34 1019.3
20260509204108 66 91 5.0 6.0 0.00 0.00 0.00 36 1019.5
20260509203604 65 64 4.0 5.0 0.00 0.00 0.00 33 1019.5
20260509203103 66 91 3.0 3.0 0.00 0.00 0.00 34 1019.4
20260509202603 64 68 1.0 2.0 0.00 0.00 0.00 37 1019.5
20260509202058 63 40 1.0 1.0 0.00 0.00 0.00 36 1019.5
20260509201553 64 71 1.0 1.0 0.00 0.00 0.00 35 1019.5
20260509201051 63 59 3.0 3.0 0.00 0.00 0.00 35 1019.6
20260509200550 64 118 4.0 5.0 0.00 0.00 0.00 34 1019.6
20260509200047 64 308 3.0 3.0 0.00 0.00 0.00 34 1019.7
20260509195543 65 2 3.0 3.0 0.00 0.00 0.00 33 1019.8
20260509195038 62 292 1.0 2.0 0.00 0.00 0.00 35 1019.7
20260509194533 62 278 3.0 3.0 0.00 0.00 0.00 35 1019.9
20260509194031 63 238 2.0 2.0 0.00 0.00 0.00 36 1019.8
20260509193531 63 296 1.0 2.0 0.00 0.00 0.00 35 1020.2
20260509193028 62 56 0.0 1.0 0.00 0.00 0.00 37 1019.9
20260509192524 62 284 1.0 2.0 0.00 0.00 0.00 34 1020.2
20260509192019 63 321 5.0 6.0 0.00 0.00 0.00 33 1019.9
20260509191514 63 339 1.0 1.0 0.00 0.00 0.00 35 1020.1
20260509191010 63 15 1.0 1.0 0.00 0.00 0.00 35 1020.1
20260509190507 62 293 5.0 6.0 0.00 0.00 0.00 34 1020.2
20260509190006 62 336 3.0 6.0 0.00 0.00 0.00 35 1020.3
20260509185502 62 2 1.0 2.0 0.00 0.00 0.00 36 1020.2
20260509184958 61 281 1.0 1.0 0.00 0.00 0.00 34 1020.2
20260509184457 62 314 3.0 3.0 0.00 0.00 0.00 37 1020.3
20260509183952 61 287 7.0 8.0 0.00 0.00 0.00 38 1020.2
20260509183447 61 331 4.0 5.0 0.00 0.00 0.00 37 1020.2
20260509182943 60 289 7.0 8.0 0.00 0.00 0.00 39 1020.2
20260509182440 60 287 8.0 9.0 0.00 0.00 0.00 36 1020.1
20260509181937 60 268 5.0 6.0 0.00 0.00 0.00 37 1020.2
20260509181436 60 292 5.0 6.0 0.00 0.00 0.00 37 1020.2
20260509180933 60 332 8.0 9.0 0.00 0.00 0.00 37 1020.3
20260509180428 59 289 6.0 7.0 0.00 0.00 0.00 37 1020.3
20260509175925 59 312 7.0 8.0 0.00 0.00 0.00 38 1020.5
20260509175421 59 280 8.0 9.0 0.00 0.00 0.00 36 1020.4
20260509174918 59 287 9.0 9.0 0.00 0.00 0.00 37 1020.3
20260509174414 59 264 10.0 11.0 0.00 0.00 0.00 38 1020.3
20260509173910 59 264 8.0 8.0 0.00 0.00 0.00 39 1020.2
20260509173409 59 254 6.0 7.0 0.00 0.00 0.00 39 1020.2
20260509172906 59 252 7.0 8.0 0.00 0.00 0.00 38 1020.2
20260509172403 59 297 6.0 8.0 0.00 0.00 0.00 42 1020.1
20260509171859 58 286 5.0 6.0 0.00 0.00 0.00 41 1019.9
20260509171355 59 300 8.0 9.0 0.00 0.00 0.00 39 1020.1
20260509170851 59 336 5.0 6.0 0.00 0.00 0.00 40 1020.1
20260509170347 59 306 7.0 9.0 0.00 0.00 0.00 39 1020.1
20260509165842 59 292 9.0 10.0 0.00 0.00 0.00 39 1019.9
20260509165337 59 288 9.0 10.0 0.00 0.00 0.00 38 1019.9
20260509164833 59 300 5.0 6.0 0.00 0.00 0.00 39 1019.9
20260509164329 60 289 7.0 8.0 0.00 0.00 0.00 40 1019.9
20260509163826 59 286 9.0 10.0 0.00 0.00 0.00 37 1019.9
20260509163322 59 306 5.0 8.0 0.00 0.00 0.00 41 1019.9
20260509162821 59 321 6.0 7.0 0.00 0.00 0.00 38 1019.9
20260509162314 59 313 10.0 13.0 0.00 0.00 0.00 38 1019.8
20260509161811 59 296 5.0 6.0 0.00 0.00 0.00 40 1019.7
20260509161307 59 305 6.0 9.0 0.00 0.00 0.00 39 1019.8
20260509160803 59 15 4.0 5.0 0.00 0.00 0.00 41 1019.8
20260509160259 59 23 3.0 5.0 0.00 0.00 0.00 39 1019.6
20260509155754 59 266 2.0 2.0 0.00 0.00 0.00 37 1019.6
20260509155251 60 48 3.0 3.0 0.00 0.00 0.00 41 1019.5
20260509154747 61 16 3.0 3.0 0.00 0.00 0.00 39 1019.6
20260509154244 60 22 1.0 1.0 0.00 0.00 0.00 39 1019.4
20260509153741 59 6 1.0 1.0 0.00 0.00 0.00 41 1019.5
20260509153237 59 16 0.0 1.0 0.00 0.00 0.00 39 1019.7
20260509152734 57 324 2.0 2.0 0.00 0.00 0.00 40 1019.7
20260509152230 57 294 4.0 5.0 0.00 0.00 0.00 41 1019.7
20260509151727 57 283 6.0 7.0 0.00 0.00 0.00 40 1019.5
20260509151224 57 356 3.0 3.0 0.00 0.00 0.00 43 1019.5
20260509150722 56 273 6.0 7.0 0.00 0.00 0.00 42 1019.5
20260509150220 56 294 3.0 3.0 0.00 0.00 0.00 43 1019.6
20260509145716 56 349 1.0 1.0 0.00 0.00 0.00 42 1019.6
20260509145211 56 338 3.0 3.0 0.00 0.00 0.00 43 1019.6
20260509144708 56 288 4.0 6.0 0.00 0.00 0.00 41 1019.5
20260509144205 55 302 2.0 2.0 0.00 0.00 0.00 46 1019.6
20260509143702 55 312 3.0 3.0 0.00 0.00 0.00 47 1019.6
20260509143200 55 307 4.0 5.0 0.00 0.00 0.00 46 1019.4
20260509142655 55 276 5.0 6.0 0.00 0.00 0.00 44 1019.5
20260509142152 55 278 5.0 6.0 0.00 0.00 0.00 44 1019.3
20260509141648 55 261 7.0 8.0 0.00 0.00 0.00 43 1019.4
20260509141144 54 253 6.0 7.0 0.00 0.00 0.00 44 1019.3
20260509140641 54 276 7.0 8.0 0.00 0.00 0.00 45 1019.2
20260509140139 54 286 5.0 6.0 0.00 0.00 0.00 45 1019.3
20260509135636 54 264 5.0 5.0 0.00 0.00 0.00 47 1019.2
20260509135134 54 265 7.0 8.0 0.00 0.00 0.00 44 1019.2
20260509134630 54 266 7.0 8.0 0.00 0.00 0.00 46 1018.8
20260509134128 53 292 7.0 8.0 0.00 0.00 0.00 46 1019.1
20260509133625 53 278 7.0 8.0 0.00 0.00 0.00 45 1018.9
20260509133122 53 268 6.0 7.0 0.00 0.00 0.00 47 1018.9
20260509132621 52 282 6.0 6.0 0.00 0.00 0.00 46 1018.8
20260509132119 52 280 6.0 7.0 0.00 0.00 0.00 47 1018.9
20260509131614 51 269 5.0 6.0 0.00 0.00 0.00 48 1018.8
20260509131112 51 285 5.0 6.0 0.00 0.00 0.00 48 1018.8
20260509130607 51 275 6.0 7.0 0.00 0.00 0.00 47 1018.7
20260509130104 50 261 6.0 7.0 0.00 0.00 0.00 48 1018.7
20260509125600 50 269 5.0 6.0 0.00 0.00 0.00 48 1018.6
20260509125057 50 267 5.0 6.0 0.00 0.00 0.00 48 1018.6
20260509124553 50 262 5.0 6.0 0.00 0.00 0.00 47 1018.5
20260509124051 50 263 6.0 7.0 0.00 0.00 0.00 47 1018.5
20260509123549 50 244 6.0 7.0 0.00 0.00 0.00 47 1018.4
20260509123045 50 252 4.0 5.0 0.00 0.00 0.00 48 1018.5
20260509122541 50 259 4.0 5.0 0.00 0.00 0.00 48 1018.4
20260509122039 50 246 5.0 6.0 0.00 0.00 0.00 47 1018.4
20260509121535 51 269 5.0 7.0 0.00 0.00 0.00 46 1018.3
20260509121033 51 245 7.0 7.0 0.00 0.00 0.00 46 1018.3
20260509120531 51 269 4.0 5.0 0.00 0.00 0.00 47 1018.3
20260509120029 50 252 5.0 5.0 0.00 0.00 0.00 48 1018.2
20260509115525 50 287 3.0 3.0 0.00 0.00 0.00 48 1018.2
20260509115023 51 295 3.0 3.0 0.00 0.00 0.00 46 1018.3
20260509114521 51 263 1.0 1.0 0.00 0.00 0.00 46 1018.4
20260509114020 50 284 1.0 1.0 0.00 0.00 0.00 46 1018.3
20260509113518 50 283 1.0 1.0 0.00 0.00 0.00 45 1018.2
20260509113015 50 341 1.0 1.0 0.00 0.00 0.00 45 1018.0
20260509112511 49 172 1.0 1.0 0.00 0.00 0.00 47 1018.2
20260509112008 49 161 0.0 0.0 0.00 0.00 0.00 46 1018.2
20260509111506 49 161 0.0 0.0 0.00 0.00 0.00 46 1018.2
20260509111003 49 161 0.0 0.0 0.00 0.00 0.00 46 1018.0
20260509110459 50 161 0.0 0.0 0.00 0.00 0.00 46 1017.9
20260509105956 50 171 0.0 0.0 0.00 0.00 0.00 45 1017.9
20260509105455 50 180 0.0 1.0 0.00 0.00 0.00 44 1018.0
20260509104952 50 195 2.0 2.0 0.00 0.00 0.00 44 1017.9
20260509104449 50 196 1.0 1.0 0.00 0.00 0.00 44 1017.8
20260509103946 50 250 1.0 2.0 0.00 0.00 0.00 44 1017.9
20260509103443 50 255 1.0 1.0 0.00 0.00 0.00 43 1017.9
20260509102941 51 269 3.0 3.0 0.00 0.00 0.00 42 1017.7
20260509102438 51 248 5.0 6.0 0.00 0.00 0.00 41 1017.6
20260509101934 51 250 5.0 6.0 0.00 0.00 0.00 41 1017.7
20260509101431 51 257 5.0 6.0 0.00 0.00 0.00 41 1017.5
20260509100928 51 245 6.0 7.0 0.00 0.00 0.00 40 1017.5
20260509100425 50 232 5.0 6.0 0.00 0.00 0.00 41 1017.3
20260509095922 49 273 6.0 7.0 0.00 0.00 0.00 43 1017.4
20260509095419 48 272 4.0 5.0 0.00 0.00 0.00 46 1017.2
20260509094916 48 274 5.0 5.0 0.00 0.00 0.00 46 1017.4
20260509094413 49 264 5.0 5.0 0.00 0.00 0.00 44 1017.4
20260509093911 49 284 5.0 6.0 0.00 0.00 0.00 43 1017.2
20260509093408 49 264 5.0 6.0 0.00 0.00 0.00 44 1017.2
20260509092906 50 277 5.0 6.0 0.00 0.00 0.00 43 1016.9
20260509092403 51 292 4.0 6.0 0.00 0.00 0.00 42 1017.2
20260509091902 51 279 5.0 6.0 0.00 0.00 0.00 41 1017.0
20260509091358 51 251 3.0 3.0 0.00 0.00 0.00 41 1017.0
20260509090855 51 278 3.0 3.0 0.00 0.00 0.00 41 1017.2
20260509090353 52 268 3.0 3.0 0.00 0.00 0.00 41 1016.9
20260509085850 52 275 4.0 5.0 0.00 0.00 0.00 41 1016.8
20260509085347 52 289 4.0 5.0 0.00 0.00 0.00 41 1017.0
20260509084843 50 291 4.0 5.0 0.00 0.00 0.00 44 1016.9
20260509084340 51 354 0.0 0.0 0.00 0.00 0.00 45 1016.7
20260509083838 53 353 1.0 1.0 0.00 0.00 0.00 43 1016.7
20260509083335 54 301 5.0 6.0 0.00 0.00 0.00 38 1016.6
20260509082831 54 277 6.0 7.0 0.00 0.00 0.00 38 1016.6
20260509082328 54 236 7.0 9.0 0.00 0.00 0.00 38 1016.6
20260509081826 53 259 4.0 6.0 0.00 0.00 0.00 40 1016.5
20260509081322 54 260 6.0 6.0 0.00 0.00 0.00 39 1016.4
20260509080820 54 258 5.0 6.0 0.00 0.00 0.00 39 1016.4
20260509080318 54 267 5.0 8.0 0.00 0.00 0.00 38 1016.4
20260509075816 54 263 5.0 7.0 0.00 0.00 0.00 39 1016.1
20260509075313 54 256 6.0 6.0 0.00 0.00 0.00 39 1016.3
20260509074810 54 257 4.0 5.0 0.00 0.00 0.00 39 1016.3
20260509074308 54 281 4.0 6.0 0.00 0.00 0.00 38 1016.3
20260509073804 53 278 5.0 6.0 0.00 0.00 0.00 39 1016.1
20260509073300 53 280 5.0 6.0 0.00 0.00 0.00 39 1016.0
20260509072757 53 282 4.0 5.0 0.00 0.00 0.00 40 1016.0
20260509072253 53 272 3.0 3.0 0.00 0.00 0.00 40 1016.0
20260509071750 54 260 4.0 5.0 0.00 0.00 0.00 40 1015.9
20260509071247 55 267 4.0 5.0 0.00 0.00 0.00 38 1015.7
20260509070744 56 283 5.0 5.0 0.00 0.00 0.00 37 1015.7
20260509070241 56 277 5.0 6.0 0.00 0.00 0.00 37 1015.7
20260509065737 57 261 7.0 8.0 0.00 0.00 0.00 36 1015.8
20260509065233 58 270 7.0 9.0 0.00 0.00 0.00 36 1015.6
20260509064730 58 279 8.0 9.0 0.00 0.00 0.00 37 1015.5
20260509064228 57 283 7.0 9.0 0.00 0.00 0.00 38 1015.6
20260509063725 55 287 7.0 8.0 0.00 0.00 0.00 42 1015.5
20260509063221 55 279 5.0 6.0 0.00 0.00 0.00 42 1015.6
20260509062718 56 283 3.0 3.0 0.00 0.00 0.00 41 1015.6
20260509062215 57 268 5.0 6.0 0.00 0.00 0.00 40 1015.3
20260509061712 57 274 5.0 5.0 0.00 0.00 0.00 39 1015.4
20260509061210 57 255 5.0 6.0 0.00 0.00 0.00 39 1015.4
20260509060707 57 259 3.0 3.0 0.00 0.00 0.00 41 1015.3
20260509060203 56 245 3.0 3.0 0.00 0.00 0.00 42 1015.4
20260509055659 56 241 3.0 3.0 0.00 0.00 0.00 43 1015.3
20260509055155 56 240 3.0 3.0 0.00 0.00 0.00 44 1015.3
20260509054652 57 245 3.0 3.0 0.00 0.00 0.00 43 1015.4
20260509054149 58 280 3.0 3.0 0.00 0.00 0.00 43 1015.0
20260509053648 58 289 2.0 2.0 0.00 0.00 0.00 44 1015.1
20260509053144 58 314 3.0 3.0 0.00 0.00 0.00 43 1015.0
20260509052642 59 314 2.0 2.0 0.00 0.00 0.00 43 1014.8
20260509052139 60 303 5.0 6.0 0.00 0.00 0.00 39 1014.8
20260509051637 60 286 6.0 7.0 0.00 0.00 0.00 39 1014.8
20260509051134 60 262 5.0 6.0 0.00 0.00 0.00 42 1014.6
20260509050631 60 274 6.0 7.0 0.00 0.00 0.00 43 1014.6
20260509050127 59 292 3.0 3.0 0.00 0.00 0.00 48 1014.8
20260509045625 59 253 3.0 3.0 0.00 0.00 0.00 51 1014.7
20260509045122 60 259 5.0 6.0 0.00 0.00 0.00 51 1014.7
20260509044619 59 251 3.0 3.0 0.00 0.00 0.00 52 1014.7
20260509044116 60 216 1.0 1.0 0.00 0.00 0.00 51 1014.7
20260509043613 60 354 0.0 0.0 0.00 0.00 0.00 50 1014.6
20260509043108 60 355 0.0 1.0 0.00 0.00 0.00 49 1014.5
20260509042605 60 290 2.0 2.0 0.00 0.00 0.00 50 1014.6
20260509042101 60 324 2.0 2.0 0.00 0.00 0.00 50 1014.5
20260509041558 60 354 1.0 1.0 0.00 0.00 0.00 50 1014.8
20260509041055 61 344 1.0 1.0 0.00 0.00 0.00 49 1014.8
20260509040554 61 247 5.0 6.0 0.00 0.00 0.00 47 1014.5
20260509040050 61 348 0.0 0.0 0.00 0.00 0.00 47 1014.5
20260509035547 61 21 0.0 0.0 0.00 0.00 0.00 46 1014.6
20260509035044 62 347 1.0 1.0 0.00 0.00 0.00 46 1014.4
20260509034542 62 39 2.0 3.0 0.00 0.00 0.00 46 1014.1
20260509034039 63 284 1.0 1.0 0.00 0.00 0.00 46 1014.4
20260509033536 64 15 0.0 0.0 0.00 0.00 0.00 45 1014.1
20260509033032 64 303 6.0 7.0 0.00 0.00 0.00 41 1014.1
20260509032530 64 18 4.0 6.0 0.00 0.00 0.00 40 1013.8
20260509032027 64 264 9.0 10.0 0.00 0.00 0.00 44 1014.0
20260509031524 64 269 13.0 16.0 0.00 0.00 0.00 44 1013.8
20260509031022 64 260 17.0 20.0 0.00 0.00 0.00 41 1013.2
20260509030520 63 256 13.0 17.0 0.00 0.00 0.00 44 1013.5
20260509030016 64 265 11.0 11.0 0.00 0.00 0.00 43 1013.2
20260509025512 64 257 13.0 16.0 0.00 0.00 0.00 41 1013.2
20260509025008 64 268 7.0 8.0 0.00 0.00 0.00 40 1013.0
20260509024503 65 268 7.0 8.0 0.00 0.00 0.00 39 1012.9
20260509024000 65 262 7.0 7.0 0.00 0.00 0.00 38 1012.9
20260509023458 65 253 7.0 8.0 0.00 0.00 0.00 38 1012.7
20260509022949 65 266 7.0 9.0 0.00 0.00 0.00 38 1012.9
20260509022446 66 279 6.0 7.0 0.00 0.00 0.00 37 1012.7
20260509021943 66 267 9.0 10.0 0.00 0.00 0.00 36 1012.5
20260509021440 66 276 10.0 13.0 0.00 0.00 0.00 35 1012.5
20260509020938 66 269 10.0 13.0 0.00 0.00 0.00 35 1012.6
20260509020436 66 278 7.0 8.0 0.00 0.00 0.00 37 1012.4
20260509015932 66 275 8.0 9.0 0.00 0.00 0.00 37 1012.2
20260509015431 67 278 6.0 8.0 0.00 0.00 0.00 36 1012.4